Weather History for Tehachapi, CA

Change the Weather History Date:

Tuesday, February 5, 2013

  Actual Average Record
Temperature  
Mean Temperature 45 °F -  
Max Temperature 62 °F 51 °F 62 °F (2013)
Min Temperature 28 °F 30 °F 26 °F (2014)
Degree Days  
Heating Degree Days 20    
Moisture  
Dew Point 31 °F    
Average Humidity 66    
Maximum Humidity 100    
Minimum Humidity 22    
Precipitation  
Precipitation 0.00 in - - ()
Sea Level Pressure  
Sea Level Pressure 30.05 in    
Wind  
Wind Speed 7 mph (NW)    
Max Wind Speed 23 mph    
Max Gust Speed 28 mph    
Visibility 7 miles    
Events Rain    
Averages and records for this station are not official NWS values.
T = Trace of Precipitation, MM = Missing Value Source: NWS Daily Summary

Daily Weather History Graph

Daily Weather History Graph

Search for Another Location

Airport:

Trip Planner

Search our weather history database for the weather conditions in past years. The results will help you decide how hot, cold, wet, or windy it might be!

Date:

Astronomy

Feb. 05, 2013 Rise Set
Actual Time 6:49 AM PST 5:26 PM PST
Civil Twilight 6:22 AM PST 5:53 PM PST
Nautical Twilight 5:52 AM PST 6:23 PM PST
Astronomical Twilight 5:23 AM PST 6:53 PM PST
Moon 2:32 AM PST (2/5) 12:53 PM PST (2/5)
Length of Visible Light 11h 30m
Length of Day
10h 37m
Waning Crescent, 25% of the Moon is Illuminated
Feb 5
Waning Crescent
Feb 9
New
Feb 17
First Quarter
Feb 25
Full
Mar 4
Last Quarter

Hourly Weather History & Observations

Time (PST) Temp. Windchill Dew Point Humidity Pressure Visibility Wind Dir Wind Speed Gust Speed Precip Events Conditions
12:15 AM 35.6 °F - 26.6 °F 70% 30.12 in 10.0 mi Calm Calm - N/A   Clear
12:35 AM 32.0 °F - 24.8 °F 75% 30.12 in 10.0 mi Calm Calm - N/A   Clear
12:55 AM 32.0 °F - 26.6 °F 80% 30.12 in 10.0 mi Calm Calm - N/A   Clear
1:15 AM 30.2 °F 24.3 °F 24.8 °F 80% 30.11 in 10.0 mi SE 5.8 mph - N/A   Clear
1:35 AM 32.0 °F 27.5 °F 24.8 °F 75% 30.11 in 10.0 mi ESE 4.6 mph - N/A   Clear
1:55 AM 30.2 °F - 24.8 °F 80% 30.10 in 10.0 mi Calm Calm - N/A   Clear
2:15 AM 30.2 °F 25.4 °F 24.8 °F 80% 30.09 in 10.0 mi East 4.6 mph - N/A   Clear
2:55 AM 32.0 °F - 24.8 °F 75% 30.09 in 10.0 mi Calm Calm - N/A   Clear
3:15 AM 28.4 °F - 24.8 °F 86% 30.08 in 10.0 mi Calm Calm - N/A   Clear
3:55 AM 30.2 °F - 24.8 °F 80% 30.08 in 10.0 mi Calm Calm - N/A   Clear
4:15 AM 28.4 °F - 24.8 °F 86% 30.08 in 10.0 mi Calm Calm - N/A   Clear
4:35 AM 32.0 °F 28.7 °F 24.8 °F 75% 30.07 in 10.0 mi ENE 3.5 mph - N/A   Clear
4:55 AM 32.0 °F - 24.8 °F 75% 30.07 in 10.0 mi Calm Calm - N/A   Clear
5:15 AM 28.4 °F 23.3 °F 24.8 °F 86% 30.07 in 10.0 mi SE 4.6 mph - N/A   Clear
5:35 AM 30.2 °F - 24.8 °F 80% 30.07 in 10.0 mi Calm Calm - N/A   Clear
5:55 AM 28.4 °F - 24.8 °F 86% 30.07 in 10.0 mi Calm Calm - N/A   Clear
6:15 AM 28.4 °F 22.2 °F 24.8 °F 86% 30.07 in 10.0 mi ESE 5.8 mph - N/A   Clear
6:35 AM 30.2 °F 24.3 °F 24.8 °F 80% 30.07 in 10.0 mi ESE 5.8 mph - N/A   Clear
6:55 AM 28.4 °F 24.6 °F 24.8 °F 86% 30.07 in 9.0 mi NE 3.5 mph - N/A   Clear
7:15 AM 32.0 °F - 24.8 °F 75% 30.07 in 10.0 mi Calm Calm - N/A   Clear
7:35 AM 35.6 °F - 26.6 °F 70% 30.08 in 10.0 mi Calm Calm - N/A   Clear
7:55 AM 37.4 °F - 26.6 °F 65% 30.08 in 9.0 mi Calm Calm - N/A   Clear
8:15 AM 41.0 °F - 30.2 °F 65% 30.08 in 9.0 mi Calm Calm - N/A   Clear
8:35 AM 48.2 °F - 32.0 °F 54% 30.09 in 9.0 mi WNW 3.5 mph - N/A   Clear
8:55 AM 51.8 °F - 26.6 °F 38% 30.09 in 10.0 mi NW 9.2 mph - N/A   Clear
9:15 AM 53.6 °F - 26.6 °F 35% 30.10 in 10.0 mi NW 11.5 mph - N/A   Clear
9:35 AM 55.4 °F - 26.6 °F 33% 30.10 in 10.0 mi NW 10.4 mph - N/A   Clear
9:55 AM 57.2 °F - 26.6 °F 31% 30.10 in 10.0 mi NW 9.2 mph - N/A   Clear
10:15 AM 57.2 °F - 26.6 °F 31% 30.10 in 10.0 mi WNW 9.2 mph - N/A   Clear
10:35 AM 57.2 °F - 26.6 °F 31% 30.09 in 9.0 mi NW 10.4 mph - N/A   Clear
10:55 AM 59.0 °F - 24.8 °F 27% 30.08 in 8.0 mi NW 11.5 mph - N/A   Clear
11:15 AM 59.0 °F - 23.0 °F 25% 30.07 in 10.0 mi WNW 12.7 mph - N/A   Clear
11:35 AM 60.8 °F - 23.0 °F 23% 30.06 in 10.0 mi NW 12.7 mph 19.6 mph N/A   Clear
11:55 AM 62.6 °F - 23.0 °F 22% 30.05 in 8.0 mi NW 16.1 mph 19.6 mph N/A   Clear
12:15 PM 62.6 °F - 23.0 °F 22% 30.03 in 10.0 mi NW 13.8 mph - N/A   Clear
12:35 PM 62.6 °F - 23.0 °F 22% 30.03 in 9.0 mi NW 16.1 mph 25.3 mph N/A   Clear
12:55 PM 62.6 °F - 24.8 °F 24% 30.02 in 10.0 mi NW 18.4 mph 24.2 mph N/A   Clear
1:15 PM 60.8 °F - 28.4 °F 29% 30.02 in 10.0 mi NW 15.0 mph - N/A   Clear
1:35 PM 59.0 °F - 24.8 °F 27% 30.01 in 10.0 mi NW 12.7 mph 20.7 mph N/A   Clear
1:55 PM 59.0 °F - 23.0 °F 25% 30.01 in 10.0 mi NW 16.1 mph 24.2 mph N/A   Clear
2:15 PM 59.0 °F - 23.0 °F 25% 30.00 in 10.0 mi NW 17.3 mph 24.2 mph N/A   Clear
2:35 PM 57.2 °F - 24.8 °F 29% 30.00 in 10.0 mi NW 17.3 mph 20.7 mph N/A   Clear
2:55 PM 59.0 °F - 24.8 °F 27% 30.00 in 9.0 mi NW 17.3 mph 21.9 mph N/A   Clear
3:15 PM 57.2 °F - 26.6 °F 31% 30.00 in 9.0 mi NW 19.6 mph 24.2 mph N/A   Clear
3:35 PM 57.2 °F - 28.4 °F 33% 30.00 in 9.0 mi NW 16.1 mph 21.9 mph N/A   Clear
3:55 PM 53.6 °F - 32.0 °F 44% 30.01 in 8.0 mi WNW 15.0 mph 21.9 mph N/A   Clear
4:15 PM 50.0 °F - 32.0 °F 50% 30.02 in 7.0 mi NW 16.1 mph 21.9 mph N/A   Clear
4:35 PM 50.0 °F - 37.4 °F 62% 30.02 in 4.0 mi NW 16.1 mph 20.7 mph N/A   Haze
4:55 PM 50.0 °F - 37.4 °F 62% 30.02 in 3.0 mi WNW 12.7 mph - N/A   Haze
5:15 PM 48.2 °F - 39.2 °F 71% 30.02 in 3.0 mi West 11.5 mph - N/A   Haze
5:55 PM 48.2 °F - 39.2 °F 71% 30.01 in 4.0 mi West 13.8 mph 20.7 mph N/A   Haze
6:15 PM 46.4 °F 39.8 °F 41.0 °F 81% 30.02 in 3.0 mi WNW 16.1 mph - N/A   Haze
6:35 PM 46.4 °F 40.7 °F 42.8 °F 87% 30.03 in 2.5 mi WNW 12.7 mph 20.7 mph N/A   Scattered Clouds
6:55 PM 46.4 °F 40.7 °F 42.8 °F 87% 30.03 in 1.8 mi NW 12.7 mph - N/A   Mostly Cloudy
7:15 PM 46.4 °F 40.4 °F 44.6 °F 93% 30.03 in 1.5 mi WNW 13.8 mph - N/A   Overcast
7:35 PM 44.6 °F 38.1 °F 44.6 °F 100% 30.03 in 1.5 mi WNW 13.8 mph - N/A   Mostly Cloudy
7:55 PM 44.6 °F 38.1 °F 44.6 °F 100% 30.03 in 1.2 mi WNW 13.8 mph - N/A   Mostly Cloudy
8:15 PM 44.6 °F 37.8 °F 44.6 °F 100% 30.03 in 1.5 mi NW 15.0 mph - N/A   Mostly Cloudy
8:35 PM 44.6 °F 37.4 °F 44.6 °F 100% 30.03 in 1.0 mi NW 16.1 mph 21.9 mph N/A   Overcast
8:55 PM 44.6 °F 37.4 °F 44.6 °F 100% 30.03 in 1.2 mi NW 16.1 mph - N/A   Mostly Cloudy
9:15 PM 44.6 °F 37.8 °F 44.6 °F 100% 30.03 in 1.2 mi NW 15.0 mph 21.9 mph N/A   Overcast
9:35 PM 44.6 °F 37.2 °F 44.6 °F 100% 30.04 in 1.0 mi NW 17.3 mph 21.9 mph N/A   Overcast
9:55 PM 44.6 °F 36.6 °F 44.6 °F 100% 30.03 in 1.5 mi NW 19.6 mph - N/A   Overcast
10:15 PM 44.6 °F 36.9 °F 41.0 °F 87% 30.04 in 2.5 mi WNW 18.4 mph - N/A   Overcast
10:35 PM 44.6 °F 35.9 °F 42.8 °F 93% 30.04 in 1.2 mi West 23.0 mph 26.5 mph N/A   Overcast
10:55 PM 42.8 °F 34.0 °F 42.8 °F 100% 30.04 in 0.2 mi West 20.7 mph 27.6 mph N/A Rain Light Rain
11:15 PM 41.0 °F 32.2 °F 41.0 °F 100% 30.04 in 0.2 mi West 18.4 mph 25.3 mph N/A Rain Light Rain
11:35 PM 41.0 °F 31.9 °F 41.0 °F 100% 30.05 in 0.2 mi WSW 19.6 mph 27.6 mph N/A Rain Light Rain
11:55 PM 41.0 °F 31.4 °F 41.0 °F 100% 30.05 in 0.2 mi West 21.9 mph 25.3 mph N/A Rain Light Rain